Regional Weather Roundup
Issued by NWS Austin/San Antonio, TX

Home | Current Version | Previous Version | Text Only | Print | Product List | Glossary On
Versions: 1 2 3 4 5 6 7 8 9 10 11 12 13 14 15 16 17 18 19 20 21 22 23 24 25 26 27 28 29 30 31 32 33 34 35 36 37 38 39 40 41 42 43 44 45 46 47 48 49 50
237
ASUS44 KEWX 281102
RWREWX
SOUTH TEXAS REGIONAL WEATHER ROUNDUP
NATIONAL WEATHER SERVICE AUSTIN/SAN ANTONIO TX
600 AM CDT WED JUN 28 2017

NOTE: "FAIR" INDICATED FEW OR NO CLOUDS BELOW 12,000 FEET WITH NO
SIGNIFICANT WEATHER AND/OR OBSTRUCTIONS TO VISIBILITY.

* - THESE STATIONS ARE NOT NWS OR FAA STATIONS...AND ARE NOT SUBJECT
    TO NWS AND FAA QUALITY CONTROL.

TXZ171-172-183>190-281200-
TEXAS HILL COUNTRY AND EDWARDS PLATEAU

CITY           SKY/WX    TMP DP  RH WIND       PRES   REMARKS
JUNCTION       MOCLDY    67  65  93 CALM      29.97S
*LLANO         CLEAR     68  66  94 CALM      29.99S
BURNET         CLOUDY    71  68  90 SE5       29.98F
*HORSESHOE BAY PTCLDY    67  66  96 MISG      29.97R
*KERRVILLE     CLOUDY    69  68  96 CALM      29.97S
*FREDERICKSBRG CLOUDY    69  66  93 SE5       29.98S
*ROCKSPRINGS   CLOUDY    68  68 100 SE6       30.00S FOG
*BOERNE STAGE  CLOUDY    68  68 100 NE3       29.98R
*CASTROVILLE   CLOUDY    70  70  99 CALM      29.94F
HONDO          CLEAR     69  68  96 NE5       29.94R
*UVALDE        MOCLDY    69  68  97 CALM      29.94S
DEL RIO        CLEAR     71  68  90 E6        29.91S
LAUGHLIN AFB   NOT AVBL
CARRIZO SPRGS  MOCLDY    70  70 100 CALM      29.90S
*EAGLE PASS    SUNNY     70  66  88 E5        29.91
$$

TXZ173-191>194-202-209-217>225-228-281200-
CENTRAL AND SOUTH CENTRAL TEXAS

CITY           SKY/WX    TMP DP  RH WIND       PRES   REMARKS
GEORGETOWN     MOCLDY    70  66  88 CALM      29.96R
AUSTIN/BERGSTM FOG       73  72  96 CALM      29.93F VSB 1/2
AUSTIN/MABRY   CLOUDY    74  71  91 CALM      29.95S
*AUSTIN/EXEC     N/A     70  70 100 CALM      29.95S FOG
*LAGO VISTA    CLOUDY    71  70  97 CALM      29.97S FOG
SAN MARCOS     CLOUDY    70  70 100 N3        29.94F VSB 1/2
NEW BRAUNFELS  CLEAR     71  70  96 NE5       29.92S
RANDOLPH AFB   PTCLDY    71  71 100 N3        29.93S
PT SAN ANTONIO MOCLDY    73  70  93 NE6       29.91S
SAN ANTONIO    CLOUDY    72  69  90 NE5       29.94S
STINSON FIELD  MOCLDY    74  70  87 NE5       29.90F
*LA GRANGE     PTCLDY    73  73  97 CALM      29.91S
*GIDDINGS      PTCLDY    71  70  97 NE3       29.94S
*GONZALES      PTCLDY    73  73 100 NE5       29.91S
$$

TXZ163>164-176>182-195>201-210>213-226-227-235-281200-
SOUTHEAST TEXAS

CITY           SKY/WX    TMP DP  RH WIND       PRES   REMARKS
COLLEGE STN    CLEAR     69  69 100 E6        29.93F
*BRYAN         CLEAR     68  68 100 NE3       29.95S
*CALDWELL      NOT AVBL
*CROCKETT      CLEAR     70  68  94 CALM      29.98F
*BRENHAM       CLEAR     73  72  98 NE3       29.93F
HUNTSVILLE     FOG       72  70  93 E3        29.95S VSB 1/4
CONROE         CLOUDY    71  70  96 NE3       29.93S FOG
HOUSTON BUSH   PTCLDY    75  72  90 NE6       29.92S
HOUSTON HOBBY  MOCLDY    76  72  87 NE5       29.90S
*HOUSTON SW AP CLEAR     73  71  94 NE3       29.90F
PEARLAND       NOT AVBL
HOUSTON HOOKS  MOCLDY    74  72  93 E6        29.92S
ELLINGTON FLD  MOCLDY    75  73  94 NE6       29.92S
SUGAR LAND     CLEAR     76  73  91 NE7       29.90F
*HOUSTON EXEC  PTCLDY    73  73 100 NE6       29.92F
*CLEVELAND MUN MOCLDY    72  71  97 CALM      29.94F FOG
*WHARTON       CLEAR     72  70  94 N3        29.90S
*COLUMBUS      FAIR      72  70  95 CALM      29.92S
*EAGLE LAKE    SUNNY     73  73 100 NE5       29.91S
$$

TXZ214>216-236>238-281200-
THE UPPER TEXAS COAST

CITY           SKY/WX    TMP DP  RH WIND       PRES   REMARKS
*ORANGE        CLEAR     73  73  99 NE5       29.95S
PORT ARTHUR    CLEAR     75  73  93 E10       29.93
GALVESTON      PTCLDY    78  76  93 E9        29.89F
ANGLETON       MOCLDY    76  74  93 NE5       29.88S
*BAY CITY      CLEAR     74  74  98 CALM      29.88S
PALACIOS       PTCLDY    71  71 100 N8        29.86F
$$

TXZ229>234-239>247-281200-
TEXAS COASTAL BEND AND RIO GRANDE PLAINS

CITY           SKY/WX    TMP DP  RH WIND       PRES   REMARKS
VICTORIA       PTCLDY    74  72  93 NE8       29.88F
*BEEVILLE      CLOUDY   N/A N/A N/A NE6       29.88S FOG
ROCKPORT       MOCLDY    77  74  90 N6        29.85S
*PORT ARANSAS  MOCLDY    78  74  88 N5        29.85S
*PORT LAVACA   CLOUDY    73  73 100 CALM      29.87F
*INGLESIDE     CLEAR     76  74  95 MISG      29.85F
CORPUS CHRISTI PTCLDY    78  74  87 N6        29.86S
CORPUS NAS     PTCLDY    80  78  94 N8        29.85S
*ROBSTOWN      MOCLDY    75  32  21 N6        29.87S
ALICE          MOCLDY    74  73  97 N6        29.87R
KINGSVILLE NAS PTCLDY   N/A N/A N/A N6        29.86S
COTULLA        CLEAR     71  70  96 NE7       29.90S
*FAITH RANCH   PTCLDY    72  72 100 NE6       29.90S
LAREDO         PTCLDY    73  70  90 NE6       29.88F
$$

TXZ248>255-281200-
DEEP SOUTH TEXAS

CITY           SKY/WX    TMP DP  RH WIND       PRES   REMARKS
BROWNSVILLE    CLOUDY    77  76  96 N3        29.85R
PORT ISABEL    MOCLDY    76  75  97 CALM      29.84S
*SOUTH PADRE   NOT AVBL
HARLINGEN      CLEAR     74  74 100 N3        29.84F
*HEBBRONVILLE  PTCLDY    70  69  95 CALM      29.89S
MCALLEN        PTCLDY    80  74  81 CALM      29.85F
*WESLACO       CLEAR     75  74  94 CALM      29.84S
FALFURRIAS     CLEAR     74  73  96 N3        29.86S
EDINBURG       CLOUDY    78  74  88 N3        29.85F
*ZAPATA        PTCLDY    76  71  84 NE3       29.86F
$$

TXZ213>215-236>238-242>244-246-247-251-254-255-281200-
CMAN STATIONS

STATION/POSITION TIME  TEMP    WIND        PRES    WAVE
                       AIR SEA DIR/SP/G            HT/PER
                 (UTC) (F)     (DEG/KT/KT) (MB)    (FT/S)
SABINE PASS      1030   76 84   60/  7/  9 1014.5
SEA RIM ST PARK  1000   78     160/  6/  7 1013.4
NORTH JETTY/GLS  1030      83  100/ 15/ 17 1011.8
EAGLE POINT      1030   79 82  110/ 12/ 18 1012.3
MORGANS POINT    1030   77 83   70/  8/ 11 1012.5
MISSION/ARANSAS  1000           10/  9       N/A
PORT O`CONNOR    1030   77     200/  5/  7 1011.0
PORT ARANSAS     1000   80 84   60/  3/  3 1010.8
MALAQUITE BEACH  1030   81 85   90/  3/  3 1010.1
PORT ISABEL      1030   79 86              1010.7
$$




USA.gov is the U.S. government's official web portal to all federal, state and local government web resources and services.